DW6007 Weather Reports


Display with metric or nautical units.
time (UTC)temp
F
wind
direction
speed
MPH
gust
MPH
rain 1hr
in
rain 24hr
in
rain mn
in
humidity
%
barometer
mb
20190222031216 48 267 0.0 0.0 0.00 0.02 0.00 91 1032.1
20190222030705 48 267 0.0 0.0 0.00 0.02 0.00 91 1032.1
20190222030206 48 267 0.0 0.0 0.00 0.02 0.00 91 1032.1
20190222025705 48 267 0.0 0.0 0.00 0.02 0.00 91 1032.2
20190222025206 48 267 0.0 0.0 0.00 0.02 0.00 91 1032.2
20190222024705 48 267 0.0 0.0 0.00 0.02 0.00 91 1032.0
20190222024205 48 267 0.0 0.0 0.00 0.02 0.00 91 1032.0
20190222023705 48 267 0.0 0.0 0.00 0.02 0.00 91 1032.0
20190222023205 48 267 0.0 0.0 0.00 0.02 0.00 91 1032.0
20190222022705 48 267 0.0 0.0 0.00 0.02 0.00 91 1031.9
20190222022206 48 267 0.0 0.0 0.00 0.02 0.00 91 1031.9
20190222021705 48 267 0.0 0.0 0.00 0.02 0.00 91 1031.8
20190222021206 48 267 0.0 1.0 0.00 0.02 0.00 91 1031.7
20190222020705 48 267 0.0 2.0 0.00 0.02 0.00 91 1031.7
20190222020206 48 267 1.0 2.0 0.00 0.02 0.00 91 1031.7
20190222015706 48 267 1.0 2.0 0.00 0.02 0.00 91 1031.7
20190222015206 48 267 1.0 3.0 0.00 0.02 0.00 91 1031.6
20190222014709 48 267 1.0 3.0 0.00 0.02 0.00 91 1031.6
20190222014217 48 267 1.0 3.0 0.00 0.02 0.00 91 1031.5
20190222013706 48 267 1.0 3.0 0.00 0.02 0.00 91 1031.4
20190222013205 48 267 1.0 3.0 0.00 0.02 0.00 91 1031.4
20190222012707 48 267 1.0 3.0 0.00 0.02 0.00 91 1031.4
20190222012205 48 270 1.0 2.0 0.00 0.02 0.00 91 1031.3
20190222011705 48 270 1.0 3.0 0.00 0.02 0.00 91 1031.3
20190222011207 48 271 1.0 3.0 0.00 0.02 0.00 91 1031.3
20190222010706 48 271 1.0 4.0 0.00 0.02 0.00 91 1031.3
20190222010208 48 271 1.0 4.0 0.00 0.02 0.00 91 1031.3
20190222005704 48 271 1.0 4.0 0.00 0.02 0.00 91 1031.2
20190222005206 48 272 1.0 3.0 0.00 0.02 0.00 91 1031.3
20190222004706 48 272 1.0 4.0 0.00 0.02 0.00 91 1031.3
20190222004206 48 272 2.0 4.0 0.00 0.02 0.00 91 1031.3
20190222003706 48 272 2.0 4.0 0.00 0.02 0.00 91 1031.2
20190222003205 48 272 1.0 4.0 0.00 0.02 0.00 91 1031.2
20190222002707 48 272 1.0 4.0 0.00 0.02 0.00 91 1031.2
20190222002210 48 272 2.0 4.0 0.00 0.02 0.00 91 1031.1
20190222001714 48 272 2.0 3.0 0.00 0.02 0.00 91 1031.0
20190222001210 48 272 1.0 4.0 0.00 0.02 0.00 91 1030.9
20190222000707 48 274 2.0 6.0 0.00 0.02 0.00 91 1030.9
20190222000205 48 274 2.0 6.0 0.00 0.02 0.00 91 1030.9
20190221235704 48 271 2.0 6.0 0.00 0.02 0.00 91 1030.9
20190221235206 48 274 2.0 4.0 0.00 0.02 0.00 91 1030.9
20190221234708 48 269 1.0 4.0 0.00 0.02 0.00 91 1030.9
20190221234207 48 258 1.0 3.0 0.00 0.02 0.00 91 1030.9
20190221233708 48 258 2.0 3.0 0.00 0.02 0.00 91 1030.9
20190221233205 48 256 2.0 3.0 0.00 0.02 0.00 91 1030.9
20190221232705 48 274 1.0 3.0 0.00 0.02 0.00 91 1030.8
20190221232213 48 274 1.0 3.0 0.00 0.02 0.00 91 1030.7
20190221231705 48 274 1.0 4.0 0.00 0.02 0.00 91 1030.6
20190221231209 48 274 2.0 4.0 0.00 0.02 0.00 91 1030.6
20190221230707 48 274 2.0 4.0 0.00 0.02 0.00 91 1030.5
20190221230206 48 274 2.0 4.0 0.00 0.02 0.02 91 1030.4
20190221225707 48 275 2.0 4.0 0.00 0.02 0.02 91 1030.5
20190221225207 48 275 2.0 6.0 0.00 0.02 0.02 91 1030.4
20190221224707 48 275 2.0 6.0 0.00 0.02 0.02 91 1030.4
20190221224206 48 275 2.0 6.0 0.00 0.02 0.02 91 1030.4
20190221223708 48 267 2.0 3.0 0.00 0.02 0.02 91 1030.3
20190221223205 48 267 2.0 3.0 0.00 0.02 0.02 91 1030.2
20190221222707 48 267 1.0 3.0 0.00 0.02 0.02 91 1030.2
20190221222209 48 267 1.0 4.0 0.00 0.02 0.02 91 1030.2
20190221221706 48 267 2.0 4.0 0.00 0.02 0.02 91 1030.0
20190221221205 48 267 2.0 4.0 0.00 0.02 0.02 91 1030.0
20190221220704 48 267 2.0 4.0 0.00 0.02 0.02 91 1029.9
20190221220208 48 269 2.0 4.0 0.00 0.02 0.02 91 1029.8
20190221215705 48 269 2.0 3.0 0.00 0.02 0.02 91 1029.7
20190221215208 48 264 2.0 3.0 0.00 0.02 0.02 91 1029.6
20190221214709 48 264 1.0 4.0 0.00 0.02 0.02 91 1029.6
20190221214208 48 265 1.0 5.0 0.00 0.02 0.02 91 1029.7
20190221213719 48 265 2.0 6.0 0.00 0.02 0.02 91 1029.6
20190221213205 48 275 2.0 6.0 0.00 0.02 0.02 91 1029.6
20190221212705 48 271 2.0 4.0 0.00 0.02 0.02 91 1029.6
20190221212211 48 264 2.0 6.0 0.00 0.02 0.02 91 1029.5
20190221211705 48 277 2.0 6.0 0.00 0.02 0.02 91 1029.4
20190221211207 48 271 3.0 6.0 0.00 0.02 0.02 91 1029.4
20190221210705 48 286 3.0 7.0 0.00 0.02 0.02 91 1029.4
20190221210206 48 283 3.0 7.0 0.00 0.02 0.02 91 1029.3
20190221205706 48 273 3.0 7.0 0.00 0.02 0.02 91 1029.2
20190221205210 48 277 4.0 7.0 0.00 0.02 0.02 91 1029.2
20190221204707 48 262 4.0 7.0 0.00 0.02 0.02 91 1029.1
20190221204206 48 277 4.0 7.0 0.00 0.02 0.02 91 1029.1
20190221203707 48 265 3.0 7.0 0.00 0.02 0.02 91 1029.1
20190221203208 48 270 3.0 6.0 0.00 0.02 0.02 91 1029.1
20190221202705 48 266 3.0 5.0 0.00 0.02 0.02 91 1029.1
20190221202205 48 269 2.0 4.0 0.00 0.02 0.02 91 1028.9
20190221201706 48 261 1.0 4.0 0.00 0.02 0.02 91 1029.0
20190221201205 48 273 1.0 4.0 0.00 0.02 0.02 91 1028.8
20190221200709 48 273 1.0 6.0 0.00 0.02 0.02 91 1028.8
20190221200227 48 273 2.0 7.0 0.00 0.02 0.02 91 1028.8
20190221195705 48 271 2.0 7.0 0.00 0.02 0.02 91 1028.7
20190221195206 48 271 2.0 7.0 0.00 0.02 0.02 91 1028.6
20190221194709 48 260 3.0 7.0 0.00 0.02 0.02 90 1028.6
20190221194205 48 270 3.0 8.0 0.00 0.02 0.02 90 1028.6
20190221193706 48 273 3.0 8.0 0.00 0.02 0.02 90 1028.5
20190221193207 48 252 3.0 8.0 0.00 0.02 0.02 90 1028.4
20190221192706 48 267 3.0 7.0 0.00 0.02 0.02 90 1028.5
20190221192208 48 233 3.0 7.0 0.00 0.02 0.02 91 1028.5
20190221191708 48 275 4.0 7.0 0.00 0.02 0.02 91 1028.5
20190221191211 48 281 3.0 7.0 0.00 0.02 0.02 91 1028.6
20190221190705 48 267 3.0 8.0 0.00 0.02 0.02 91 1028.5
20190221190205 48 249 3.0 8.0 0.00 0.02 0.02 91 1028.5
20190221185708 48 270 3.0 5.0 0.00 0.02 0.02 91 1028.3
20190221185206 48 275 3.0 6.0 0.00 0.02 0.02 91 1028.3
20190221184705 48 262 3.0 8.0 0.00 0.02 0.02 91 1028.2
20190221184211 48 277 2.0 8.0 0.00 0.02 0.02 91 1028.1
20190221183705 48 242 2.0 8.0 0.00 0.02 0.02 90 1028.1
20190221183206 48 275 2.0 7.0 0.00 0.02 0.02 90 1028.1
20190221182708 48 242 2.0 6.0 0.00 0.02 0.02 90 1028.0
20190221182206 48 255 2.0 6.0 0.00 0.02 0.02 90 1027.9
20190221181705 48 275 2.0 6.0 0.00 0.02 0.02 90 1027.9
20190221181206 48 267 2.0 6.0 0.00 0.02 0.02 90 1027.9
20190221180707 48 242 2.0 6.0 0.00 0.02 0.02 90 1027.8
20190221180206 48 269 3.0 6.0 0.00 0.02 0.02 90 1027.7
20190221175705 48 252 3.0 7.0 0.00 0.02 0.02 90 1027.6
20190221175206 48 218 2.0 7.0 0.00 0.02 0.02 90 1027.5
20190221174707 48 238 2.0 7.0 0.00 0.02 0.02 90 1027.5
20190221174205 48 249 2.0 7.0 0.00 0.02 0.02 90 1027.4
20190221173706 48 232 3.0 8.0 0.00 0.02 0.02 90 1027.3
20190221173215 48 248 3.0 8.0 0.00 0.02 0.02 90 1027.3
20190221172706 48 225 4.0 9.0 0.00 0.02 0.02 90 1027.3
20190221172206 48 273 3.0 9.0 0.00 0.02 0.02 90 1027.2
20190221171705 48 215 3.0 6.0 0.00 0.02 0.02 90 1027.1
20190221171206 48 292 2.0 8.0 0.00 0.02 0.02 90 1027.0
20190221170706 48 243 2.0 8.0 0.00 0.02 0.02 90 1026.9
20190221170205 48 215 3.0 9.0 0.00 0.02 0.02 90 1026.9
20190221165706 48 232 3.0 9.0 0.00 0.02 0.02 90 1026.8
20190221165208 48 246 3.0 9.0 0.00 0.02 0.02 90 1026.8
20190221164705 48 279 3.0 9.0 0.00 0.02 0.02 90 1026.9
20190221164207 48 222 3.0 11.0 0.00 0.02 0.02 90 1026.8
20190221163708 48 267 4.0 11.0 0.00 0.02 0.02 90 1026.7
20190221163209 48 272 5.0 13.0 0.00 0.02 0.02 90 1026.7
20190221162705 48 265 5.0 13.0 0.00 0.02 0.02 90 1026.6
20190221162209 48 258 5.0 13.0 0.00 0.02 0.02 90 1026.6
20190221161706 48 276 4.0 9.0 0.00 0.02 0.02 90 1026.5
20190221161206 48 276 4.0 9.0 0.00 0.02 0.02 90 1026.4
20190221160704 48 289 4.0 11.0 0.00 0.02 0.02 90 1026.4
20190221160207 48 288 4.0 11.0 0.00 0.02 0.02 90 1026.4
20190221155706 48 232 5.0 12.0 0.00 0.02 0.02 90 1026.3
20190221155206 48 276 5.0 13.0 0.00 0.02 0.02 90 1026.2
20190221154705 48 243 5.0 13.0 0.00 0.02 0.02 90 1026.1
20190221154214 48 297 6.0 13.0 0.00 0.02 0.02 90 1026.0
20190221153706 48 265 6.0 12.0 0.00 0.02 0.02 90 1026.0
20190221153209 48 295 6.0 13.0 0.00 0.02 0.02 90 1025.9
20190221152705 48 294 6.0 13.0 0.00 0.02 0.02 90 1025.9
20190221152207 48 292 7.0 13.0 0.00 0.02 0.02 90 1025.8
20190221151706 48 232 6.0 12.0 0.00 0.02 0.02 90 1025.8
20190221151206 48 252 6.0 14.0 0.00 0.02 0.02 90 1025.8
20190221150707 49 234 6.0 14.0 0.00 0.02 0.02 89 1025.7
20190221150205 49 281 5.0 14.0 0.00 0.02 0.02 89 1025.7
20190221145706 49 272 6.0 14.0 0.00 0.02 0.02 89 1025.7
20190221145207 49 281 5.0 14.0 0.00 0.02 0.02 89 1025.6
20190221144706 49 288 5.0 14.0 0.00 0.02 0.02 90 1025.6
20190221144206 49 275 6.0 12.0 0.00 0.02 0.02 89 1025.6
20190221143707 49 288 6.0 13.0 0.00 0.02 0.02 89 1025.6
20190221143207 49 234 6.0 13.0 0.00 0.02 0.02 89 1025.5
20190221142704 49 309 5.0 13.0 0.00 0.02 0.02 89 1025.5
20190221142208 49 292 5.0 12.0 0.00 0.02 0.02 89 1025.5
20190221141707 49 273 5.0 12.0 0.00 0.02 0.02 89 1025.5
20190221141205 49 277 5.0 12.0 0.00 0.02 0.02 89 1025.4
20190221140712 49 279 5.0 13.0 0.00 0.02 0.02 89 1025.4
20190221140214 49 223 5.0 13.0 0.00 0.02 0.02 89 1025.3
20190221135705 49 229 5.0 13.0 0.00 0.02 0.02 89 1025.3
20190221135206 49 277 5.0 13.0 0.00 0.02 0.02 89 1025.3
20190221134705 49 266 5.0 11.0 0.00 0.02 0.02 89 1025.3
20190221134207 49 188 5.0 11.0 0.00 0.02 0.02 89 1025.3
20190221133711 50 247 5.0 10.0 0.00 0.02 0.02 89 1025.2
20190221133206 50 274 5.0 14.0 0.00 0.02 0.02 89 1025.3
20190221132705 50 244 6.0 14.0 0.00 0.02 0.02 89 1025.3
20190221132207 50 261 6.0 11.0 0.00 0.02 0.02 88 1025.3
20190221131707 50 248 6.0 13.0 0.00 0.02 0.02 88 1025.3
20190221131205 50 275 6.0 13.0 0.00 0.02 0.02 88 1025.3
20190221130733 50 218 6.0 12.0 0.00 0.02 0.02 88 1025.4
20190221130205 50 257 6.0 12.0 0.00 0.02 0.02 88 1025.3
20190221125705 50 177 6.0 13.0 0.00 0.02 0.02 88 1025.3
20190221125208 50 282 6.0 13.0 0.00 0.02 0.02 88 1025.3
20190221124712 50 279 6.0 15.0 0.00 0.02 0.02 88 1025.3
20190221124206 50 275 7.0 15.0 0.00 0.02 0.02 89 1025.3
20190221123705 50 263 6.0 15.0 0.00 0.02 0.02 89 1025.3
20190221123207 50 275 6.0 12.0 0.00 0.02 0.02 89 1025.2
20190221122705 50 273 6.0 13.0 0.00 0.02 0.02 89 1025.1
20190221122210 50 275 6.0 13.0 0.00 0.02 0.02 89 1025.1
20190221121706 50 309 6.0 11.0 0.00 0.02 0.02 89 1024.9
20190221121205 50 275 5.0 11.0 0.00 0.02 0.02 89 1024.9
20190221120705 50 288 5.0 10.0 0.00 0.02 0.02 89 1024.8
20190221120212 49 288 4.0 10.0 0.00 0.02 0.02 89 1024.8
20190221115705 49 221 4.0 12.0 0.00 0.02 0.02 89 1024.7
20190221115210 49 240 4.0 12.0 0.00 0.02 0.02 89 1024.7
20190221114707 49 209 4.0 12.0 0.00 0.02 0.02 89 1024.7
20190221114205 49 238 4.0 12.0 0.00 0.02 0.02 89 1024.7
20190221113706 49 240 4.0 12.0 0.00 0.02 0.02 89 1024.7
20190221113207 49 207 5.0 12.0 0.00 0.02 0.02 89 1024.6
20190221112705 49 230 5.0 12.0 0.00 0.02 0.02 89 1024.6
20190221112207 49 285 5.0 12.0 0.00 0.02 0.02 89 1024.5
20190221111704 49 212 5.0 13.0 0.00 0.02 0.02 89 1024.6
20190221111208 49 288 5.0 13.0 0.00 0.02 0.02 89 1024.6
20190221110706 49 272 6.0 13.0 0.00 0.02 0.02 89 1024.6
20190221110206 49 209 6.0 12.0 0.00 0.02 0.02 89 1024.6
20190221105706 49 126 6.0 14.0 0.00 0.02 0.02 89 1024.6
20190221105206 49 189 6.0 14.0 0.00 0.02 0.02 89 1024.6
20190221104713 49 256 7.0 14.0 0.01 0.02 0.02 89 1024.5
20190221104217 48 214 6.0 12.0 0.01 0.02 0.02 89 1024.5
20190221103722 48 200 4.0 15.0 0.01 0.02 0.02 89 1024.6
20190221103213 48 234 5.0 15.0 0.02 0.02 0.02 89 1024.6
20190221102708 48 250 6.0 15.0 0.02 0.02 0.02 89 1024.6
20190221102206 48 196 6.0 13.0 0.02 0.02 0.02 89 1024.6
20190221101714 48 244 6.0 13.0 0.02 0.02 0.02 89 1024.6
20190221101205 48 225 5.0 13.0 0.02 0.02 0.02 89 1024.7
20190221100705 48 211 5.0 12.0 0.02 0.02 0.02 89 1024.7
20190221100206 48 252 5.0 11.0 0.02 0.02 0.02 89 1024.7
20190221095705 48 213 5.0 12.0 0.02 0.02 0.02 89 1024.7
20190221095205 48 223 5.0 12.0 0.02 0.02 0.02 89 1024.6
20190221094705 48 188 5.0 11.0 0.02 0.02 0.02 89 1024.7
20190221094210 48 209 5.0 11.0 0.02 0.02 0.02 89 1024.6
20190221093706 48 274 5.0 11.0 0.01 0.01 0.01 89 1024.7
20190221093206 47 204 5.0 10.0 0.01 0.01 0.01 89 1024.6
20190221092704 47 227 5.0 8.0 0.01 0.01 0.01 89 1024.6
20190221092212 47 240 5.0 8.0 0.01 0.01 0.01 89 1024.6
20190221091710 47 209 5.0 8.0 0.01 0.01 0.01 89 1024.6
20190221091206 47 195 4.0 8.0 0.01 0.01 0.01 89 1024.5
20190221090705 47 225 4.0 7.0 0.01 0.01 0.01 89 1024.5
20190221090205 47 219 4.0 7.0 0.01 0.01 0.01 89 1024.5
20190221085706 47 217 4.0 7.0 0.00 0.00 0.00 89 1024.4
20190221085210 46 211 3.0 7.0 0.00 0.00 0.00 89 1024.4
20190221084706 46 221 3.0 8.0 0.00 0.00 0.00 89 1024.3
20190221084205 46 203 3.0 8.0 0.00 0.00 0.00 89 1024.2
20190221083711 46 199 3.0 8.0 0.00 0.00 0.00 89 1024.2
20190221083208 46 205 3.0 7.0 0.00 0.00 0.00 89 1024.1
20190221082705 46 185 4.0 7.0 0.00 0.00 0.00 89 1024.1
20190221082206 45 215 4.0 7.0 0.00 0.00 0.00 89 1024.0
20190221081708 45 197 3.0 7.0 0.00 0.00 0.00 89 1023.9
20190221081207 45 205 4.0 8.0 0.00 0.00 0.00 89 1023.9
20190221080708 45 215 4.0 8.0 0.00 0.00 0.00 89 1023.9
20190221080205 45 202 4.0 7.0 0.00 0.00 0.00 89 1023.9
20190221075706 45 177 4.0 6.0 0.00 0.00 0.00 89 1023.7
20190221075205 45 209 3.0 6.0 0.00 0.00 0.00 89 1023.6
20190221074705 44 175 3.0 6.0 0.00 0.00 0.00 89 1023.6
20190221074206 44 178 3.0 6.0 0.00 0.00 0.00 88 1023.5
20190221073705 44 182 4.0 7.0 0.00 0.00 0.00 88 1023.4
20190221073208 44 189 4.0 7.0 0.00 0.00 0.00 88 1023.4
20190221072708 44 198 4.0 7.0 0.00 0.00 0.00 88 1023.3
20190221072206 44 202 4.0 7.0 0.00 0.00 0.00 88 1023.3
20190221071706 44 180 4.0 7.0 0.00 0.00 0.00 88 1023.2
20190221071206 44 187 4.0 7.0 0.00 0.00 0.00 88 1023.2
20190221070706 44 187 4.0 8.0 0.00 0.00 0.00 88 1023.1
20190221070206 44 190 5.0 8.0 0.00 0.00 0.00 88 1023.0
20190221065705 44 180 5.0 8.0 0.00 0.00 0.00 88 1022.9
20190221065211 44 180 5.0 8.0 0.00 0.00 0.00 88 1022.9
20190221064705 44 156 5.0 9.0 0.00 0.00 0.00 88 1022.8
20190221064210 44 180 5.0 10.0 0.00 0.00 0.00 88 1022.9
20190221063707 44 215 5.0 10.0 0.00 0.00 0.00 88 1022.7
20190221063206 44 183 5.0 10.0 0.00 0.00 0.00 88 1022.7
20190221062705 44 174 5.0 10.0 0.00 0.00 0.00 88 1022.7
20190221062208 44 178 5.0 8.0 0.00 0.00 0.00 88 1022.7
20190221061708 44 193 4.0 8.0 0.00 0.00 0.00 88 1022.7
20190221061207 44 159 4.0 8.0 0.00 0.00 0.00 88 1022.7
20190221060705 44 199 5.0 8.0 0.00 0.00 0.00 88 1022.7
20190221060206 44 215 5.0 8.0 0.00 0.00 0.00 88 1022.7
20190221055705 44 193 5.0 8.0 0.00 0.00 0.00 88 1022.7
20190221055205 44 213 5.0 8.0 0.00 0.00 0.00 88 1022.7
20190221054705 44 202 5.0 9.0 0.00 0.00 0.00 88 1022.7
20190221054205 44 167 5.0 10.0 0.00 0.00 0.00 88 1022.7
20190221053706 44 192 5.0 10.0 0.00 0.00 0.00 88 1022.7
20190221053205 44 171 5.0 10.0 0.00 0.00 0.00 88 1022.8
20190221052706 44 209 5.0 10.0 0.00 0.00 0.00 88 1022.7
20190221052205 44 200 4.0 9.0 0.00 0.00 0.00 88 1022.7
20190221051706 44 204 5.0 9.0 0.00 0.00 0.00 89 1022.7
20190221051205 44 204 5.0 9.0 0.00 0.00 0.00 89 1022.8
20190221050705 44 174 5.0 9.0 0.00 0.00 0.00 89 1022.8
20190221050205 44 183 5.0 9.0 0.00 0.00 0.00 89 1022.8
20190221045705 44 201 5.0 10.0 0.00 0.00 0.00 89 1022.7
20190221045206 44 163 5.0 10.0 0.00 0.00 0.00 89 1022.5
20190221044705 44 179 5.0 10.0 0.00 0.00 0.00 89 1022.6
20190221044207 44 175 5.0 9.0 0.00 0.00 0.00 89 1022.5
20190221043706 43 174 4.0 8.0 0.00 0.00 0.00 89 1022.7
20190221043206 43 187 4.0 7.0 0.00 0.00 0.00 89 1022.8
20190221042705 43 180 4.0 7.0 0.00 0.00 0.00 89 1022.7
20190221042206 43 181 4.0 7.0 0.00 0.00 0.00 89 1022.8
20190221041705 43 173 3.0 7.0 0.00 0.00 0.00 89 1022.9
20190221041205 42 186 4.0 8.0 0.00 0.00 0.00 89 1022.9
20190221040705 42 183 4.0 8.0 0.00 0.00 0.00 89 1022.8
20190221040205 43 188 4.0 9.0 0.00 0.00 0.00 88 1022.9
20190221035705 43 174 5.0 9.0 0.00 0.00 0.00 88 1022.8
20190221035205 43 188 5.0 8.0 0.00 0.00 0.00 88 1022.8
20190221034705 43 200 5.0 8.0 0.00 0.00 0.00 88 1022.8
20190221034206 43 178 4.0 8.0 0.00 0.00 0.00 88 1022.9
20190221033705 43 184 5.0 8.0 0.00 0.00 0.00 88 1022.9
20190221033205 43 181 5.0 8.0 0.00 0.00 0.00 88 1022.9
20190221032705 44 197 4.0 8.0 0.00 0.00 0.00 88 1022.9
20190221032206 44 181 5.0 8.0 0.00 0.00 0.00 88 1022.8
20190221031704 44 200 5.0 8.0 0.00 0.00 0.00 88 1022.9